Regional Weather Roundup
Issued by NWS

Home | Current Version | Previous Version | Graphics & Text | Print | Product List | Glossary On
Versions: 1 2 3 4 5 6 7 8 9 10 11 12 13 14 15 16 17 18 19 20 21 22 23 24 25 26 27 28 29 30 31 32 33 34 35 36 37 38 39 40 41 42 43 44 45 46 47 48 49 50
000
ASUS43 KMPX 280110
RWRMN
WEATHER ROUNDUP FOR MINNESOTA
NATIONAL WEATHER SERVICE TWIN CITIES/CHANHASSEN MN
800 PM CDT WED JUL 27 2016


NOTE: "FAIR" INDICATES FEW OR NO CLOUDS BELOW 12,000 FEET WITH NO
SIGNIFICANT WEATHER AND/OR OBSTRUCTIONS TO VISIBILITY. N/A MEANS
CURRENT SKY AND/OR WEATHER CONDITIONS ARE NOT AVAILABLE.

MNZ060>063-068>070-280200-
   Twin Cities Metro

CITY           SKY/WX    TMP DP  RH WIND       PRES   REMARKS
TWIN CITIES    MOCLDY    72  64  76 N12       29.93F
ST PAUL        CLOUDY    71  65  81 N10       29.93F
CRYSTAL        CLOUDY    70  63  78 N13       29.94R
LAKEVILLE      PTCLDY    72  66  83 N7        29.93S
EDEN PRAIRIE   PTCLDY    74  65  73 N7        29.93S
LAKEVILLE      PTCLDY    72  66  83 N7        29.93S
SOUTH ST PAUL  PTCLDY    71  65  82 N9        29.93S
LAKE ELMO      FAIR      70  66  88 N5G16     29.95S
$$
MNZ001>005-007-008-013>017-022>024-027-028-280200-
   Northwest Minnesota

CITY           SKY/WX    TMP DP  RH WIND       PRES   REMARKS
BEMIDJI        CLEAR     72  59  64 E7        30.02F
HALLOCK        CLOUDY    72  59  64 N12       30.06R
ROSEAU         CLEAR     70  63  78 E7        30.06S
WARROAD        CLEAR     72  61  68 NE9       30.07S
THIEF RVR FALL CLOUDY    73  61  65 NE7       30.04S
CROOKSTON      PTCLDY    73  61  64 N12       30.04R
FOSSTON        PTCLDY    72  63  73 CALM      30.03R
DETROIT LAKES  PTCLDY    72  61  68 NE3       30.04R
MOORHEAD       CLEAR     73  61  64 N9        30.03R
PARK RAPIDS    CLOUDY    72  61  68 E7        30.02R
MAHNOMEN       FAIR      70  64  82 E3        30.02R
$$
MNZ006-009>011-018-025>026-280200-
   North Central Minnesota

CITY           SKY/WX    TMP DP  RH WIND       PRES   REMARKS
BAUDETTE       CLEAR     71  57  61 N10       30.05S
FLAG ISLAND    PTCLDY    70  55  60 NE15      30.07S
INTL FALLS     CLEAR     72  54  53 N9        30.04S
WASKISH        CLOUDY    72  63  73 CALM      30.03S
BIG FORK       PTCLDY    72  61  68 CALM      30.03S
LONGVILLE      PTCLDY    70  63  78 CALM      30.02S
GRAND RAPIDS   MOCLDY    69  62  78 E3        30.03F
CRANE LAKE     MOCLDY    72  57  60 NE2       30.04F
ORR            PTCLDY    66  61  82 CALM      30.01S
COOK           CLEAR     70  61  73 CALM      30.03F
WALKER         FAIR      70  61  73 NE7       30.02R
$$
MNZ012-019>021-037-280200-
   Northeast Minnesota

CITY           SKY/WX    TMP DP  RH WIND       PRES   REMARKS
DULUTH         PTCLDY    65  60  84 NE5       30.03S
ELY            MOCLDY    68  61  77 CALM      30.04S
HIBBING        CLOUDY    66  64  93 CALM      30.02F
EVELETH        MOCLDY    66  63  87 CALM      30.04F
DULUTH HARBOR  CLOUDY    64  61  88 NE12      30.02F
TWO HARBORS    PTCLDY    66  61  82 CALM      30.01S
SILVER BAY     MOCLDY    63  59  88 CALM      30.02S
GRAND MARAIS     N/A     65  54  67 CALM      30.02S
$$
MNZ029>031-032-039>041-046>048-054>057-064-280200-
   West Central Minnesota

CITY           SKY/WX    TMP DP  RH WIND       PRES   REMARKS
FERGUS FALLS   CLEAR     72  57  60 N7        30.01F
WHEATON        CLEAR     75  63  64 NW7       30.04R
MORRIS         CLEAR     73  61  64 N9        29.99S
ALEXANDRIA     PTCLDY    75  62  64 N7        30.01R
ELBOW LAKE     FAIR      73  60  63 NW9       30.01S
WADENA         CLEAR     70  61  73 NE8       30.02R
GLENWOOD       CLEAR     72  64  78 N5        30.01R
APPLETON       CLEAR     75  61  60 N8        30.00R
BENSON         PTCLDY    73  63  68 CALM      30.00R
ORTONVILLE     CLEAR     75  59  57 N7        30.02R
MADISON        CLEAR     75  57  53 N9        30.01R
WILLMAR        FAIR      75  64  69 N9        30.00R
$$
MNZ033>034-036-042>043-049>051-058-059-280200-
   Central Minnesota

CITY           SKY/WX    TMP DP  RH WIND       PRES   REMARKS
ST CLOUD       PTCLDY    71  65  81 NE9       29.97R
SAUK CENTRE    MOCLDY    73  64  71 N5        29.99R
PAYNESVILLE    MOCLDY    73  63  72 NE6       29.99R
AITKIN         CLOUDY    70  59  68 E3        30.00S
PINE RIVER     MOCLDY    70  63  78 NE7       30.04S
BRAINERD       PTCLDY    68  62  81 E7        30.01R
STAPLES        CLOUDY    70  61  73 E5        30.01R
LONG PRAIRIE   FAIR      70  63  78 N5        30.01R
LITTLE FALLS   CLEAR     68  61  77 CALM      30.00R
LITCHFIELD     MOCLDY    73  66  78 N7        29.98R
BUFFALO        PTCLDY    71  64  77 N10       29.97R
MAPLE LAKE     CLEAR     70  66  86 NE8       29.98R
HUTCHINSON     CLOUDY    75  65  72 NW8G16    29.98R
$$
MNZ037-044-045-052-053-280200-
   East Central Minnesota

CITY           SKY/WX    TMP DP  RH WIND       PRES   REMARKS
PRINCETON      CLOUDY    68  64  88 N9G16     29.98R
MORA           HVY RAIN  59  55  88 N5        30.01S
CAMBRIDGE      CLOUDY    66  61  82 N7        29.96R HAZE
RUSH CITY      LGT RAIN  65  64  94 N7        29.98R
MOOSE LAKE     CLOUDY    61  57  88 NE8       30.00F
HINCKLEY       CLOUDY    63  63 100 N6        29.99S
CLOQUET        PTCLDY    64  55  72 NE6       30.02F
MCGREGOR       MOCLDY    68  59  73 E6        30.02F
$$
MNZ071>073-080-081-089-090-097-098-280200-
   Southwest Minnesota

CITY           SKY/WX    TMP DP  RH WIND       PRES   REMARKS
MONTEVIDEO     MOCLDY    75  64  69 NE3       30.02R
GRANITE FALLS  CLEAR     77  64  63 NW9       30.01R
CANBY          CLEAR     76  60  57 N7        30.02S
MARSHALL       CLEAR     75  66  73 N7        30.00R
REDWOOD FALLS  CLEAR     76  64  66 N5        29.97R
OLIVIA         PTCLDY    77  64  65 N7        29.98S
PIPESTONE      CLEAR     77  63  61 N10       30.02R
WINDOM         MOCLDY    75  64  69 N13       29.99R
WORTHINGTON    CLEAR     76  65  68 N10       30.00R
JACKSON        PTCLDY    75  63  64 NW6       29.99R
TRACY          CLEAR     75  65  70 N8        30.00S
SLAYTON        MOCLDY    75  64  68 N10G17    30.02R
$$
MNZ065>067-074>077-082>085-091>093-280200-
   South Central Minnesota

CITY           SKY/WX    TMP DP  RH WIND       PRES   REMARKS
MANKATO        PTCLDY    73  64  73 N7        29.95S
NEW ULM        PTCLDY    73  66  78 NE8       29.96S
ST JAMES       CLEAR     70  63  78 N8        29.97R
FAIRMONT       PTCLDY    75  64  69 N9        29.95R
GLENCOE        MOCLDY    74  68  82 CALM      29.96R
FARIBAULT      PTCLDY    72  70  94 NW3       29.94S
OWATONNA       MOCLDY    73  68  83 CALM      29.93F
WASECA         PTCLDY    72  66  83 N5        29.96R
ALBERT LEA     CLOUDY    72  68  88 CALM      29.94S
$$
MNZ078>079-086>088-094>096-280200-
   Southeast Minnesota

CITY           SKY/WX    TMP DP  RH WIND       PRES   REMARKS
ROCHESTER      MOCLDY    72  69  90 NW7       29.93F
RED WING       CLOUDY    72  70  94 NW6       29.90S
STANTON        MOCLDY    73  68  83 CALM      29.92S
DODGE CENTER   CLOUDY    70  66  88 CALM      29.93F
WINONA         MOCLDY    77  70  78 N7        29.91R
AUSTIN         CLOUDY    73  66  78 NW7       29.93F
PRESTON        CLOUDY    73  67  81 SW5       29.92F
$$
ABBREVIATIONS USED IN REMARKS
   TC - TEMPERATURES IN CELSIUS
  WCI - WIND CHILL INDEX
   HX - HEAT INDEX
  VSB - VISIBILITY
$$




USA.gov is the U.S. government's official web portal to all federal, state and local government web resources and services.